World > North America > United States > Iowa > Bedford  

Bedford, IA Hourly Weather Updates

Feedback E-mail the Weather

Quick Clicks

Bedford, IA Weather Maps

°F °C°F °C
Bedford Weather Map
UTC Time: 7/21/2024, 14:13
Your Time:

Bedford, IA Regional Weather

Expires:202407211500;;046975
ASUS43 KDMX 211406
RWRIA 

WEATHER ROUNDUP FOR IOWA
NATIONAL WEATHER SERVICE DES MOINES IA
900 AM CDT SUN JUL 21 2024

NOTE: "FAIR" INDICATES FEW OR NO CLOUDS BELOW 12,000 FEET WITH NO
SIGNIFICANT WEATHER AND/OR OBSTRUCTIONS TO VISIBILITY.

* - THESE STATIONS ARE NOT NWS STATIONS...THUS NOT UNDER NWS
QUALITY CONTROL.  THEY ALSO DO NOT REPORT WEATHER SUCH 
AS PRECIPITATION OR FOG.  


IAZ055>058-069>071-079>083-090>094-211500-
   SOUTHWEST IOWA
  
CITY           SKY/WX    TMP DP  RH WIND       PRES   REMARKS
ATLANTIC *     CLOUDY    66  66 100 CALM      30.17R TC  19           
AUDUBON *      CLOUDY    70  66  88 CALM      30.18R TC  21           
CLARINDA *     MOSUNNY   68 N/A N/A S7        30.19R TC  20           
COUNCIL BLFS * CLOUDY    66  66 100 CALM      30.16R TC  19           
CRESTON *      SUNNY     68  68 100 VRB3      30.18R TC  20           
HARLAN  *      MOSUNNY   64  64 100 CALM      30.18S TC  18           
LAMONI         MOSUNNY   70  65  84 CALM      30.17R TC  21           
RED OAK *      PTSUNNY   68  68 100 CALM      30.18R TC  20           
SHENANDOAH *   PTSUNNY   70  68  94 SE5       30.16R TC  21           
$$
 

SKY/WX - Weather  TMP - Temperature  DP - Dew Point  RH - Humidity
WIND - Wind Direction/Speed PRES - Barometric Pressure VSB - Visibility
WCI - Wind Chill Index E13G22 Wind - East Wind 13 mph/Gusts of 22 mph

Trending Headlines

Trending Entertainment Headlines

Bedford Radar Loop

Use the map search tool if you want to place a location marker on the radar map...

Bedford Quick Facts

National Two Day Weather Forecast


E-mail the Bedford Weather Forecast

Voice your opinion or tell us about page issues...